Time,TemperatureF,DewpointF,PressureIn,WindDirection,WindDirectionDegrees,WindSpeedMPH,WindSpeedGustMPH,Humidity,HourlyPrecipIn,Conditions,Clouds,dailyrainin,SoftwareType,DateUTC
2013-02-09 00:02:00,32.0,20.0,29.93,NW,326,13.0,27.0,62,0.00,,,0.02,,2013-02-09 05:02:00,
2013-02-09 00:12:00,32.0,20.0,29.93,NW,326,13.0,27.0,62,0.00,,,0.02,,2013-02-09 05:12:00,
2013-02-09 00:22:00,32.0,20.0,29.94,NNW,333,15.0,23.0,61,0.00,,,0.02,,2013-02-09 05:22:00,
2013-02-09 00:32:00,31.0,19.0,29.96,NW,325,15.0,23.0,61,0.00,,,0.02,,2013-02-09 05:32:00,
2013-02-09 00:42:00,31.0,19.0,29.96,NW,325,15.0,23.0,61,0.00,,,0.02,,2013-02-09 05:42:00,
2013-02-09 00:52:00,31.0,19.0,29.96,NNW,340,17.0,24.0,61,0.00,,,0.02,,2013-02-09 05:52:00,
2013-02-09 01:01:00,31.0,19.0,29.96,NW,326,17.0,24.0,61,0.00,,,0.02,,2013-02-09 06:01:00,
2013-02-09 01:11:00,31.0,19.0,29.96,NW,326,17.0,24.0,61,0.00,,,0.02,,2013-02-09 06:11:00,
2013-02-09 01:21:00,31.0,19.0,29.97,NW,320,16.0,25.0,61,0.00,,,0.02,,2013-02-09 06:21:00,
2013-02-09 01:32:00,31.0,20.0,29.98,NW,320,14.0,22.0,62,0.00,,,0.02,,2013-02-09 06:32:00,
2013-02-09 01:42:00,31.0,20.0,29.98,NW,320,14.0,22.0,62,0.00,,,0.02,,2013-02-09 06:42:00,
2013-02-09 01:52:00,31.0,19.0,29.99,North,355,12.0,18.0,61,0.00,,,0.02,,2013-02-09 06:52:00,
2013-02-09 02:01:00,31.0,19.0,29.99,NNW,348,12.0,18.0,61,0.00,,,0.02,,2013-02-09 07:01:00,
2013-02-09 02:11:00,31.0,19.0,29.99,NNW,348,12.0,18.0,61,0.00,,,0.02,,2013-02-09 07:11:00,
2013-02-09 02:21:00,30.0,18.0,30.00,NNW,343,14.0,20.0,60,0.00,,,0.02,,2013-02-09 07:21:00,
2013-02-09 02:31:00,30.0,17.0,30.02,NNW,333,15.0,26.0,59,0.00,,,0.02,,2013-02-09 07:31:00,
2013-02-09 02:42:00,30.0,17.0,30.02,NNW,333,15.0,26.0,59,0.00,,,0.02,,2013-02-09 07:42:00,
2013-02-09 02:52:00,30.0,18.0,30.03,NNE,15,14.0,23.0,60,0.00,,,0.02,,2013-02-09 07:52:00,
2013-02-09 03:01:00,30.0,18.0,30.03,NNW,336,16.0,23.0,60,0.00,,,0.02,,2013-02-09 08:01:00,
2013-02-09 03:11:00,30.0,18.0,30.03,NNW,336,16.0,23.0,60,0.00,,,0.02,,2013-02-09 08:11:00,
2013-02-09 03:21:00,30.0,17.0,30.04,NNW,338,14.0,26.0,59,0.00,,,0.02,,2013-02-09 08:21:00,
2013-02-09 03:31:00,29.0,17.0,30.04,North,355,12.0,22.0,61,0.00,,,0.02,,2013-02-09 08:31:00,
2013-02-09 03:42:00,29.0,17.0,30.04,North,355,12.0,22.0,61,0.00,,,0.02,,2013-02-09 08:42:00,
2013-02-09 03:52:00,29.0,17.0,30.04,NNW,328,14.0,18.0,61,0.00,,,0.02,,2013-02-09 08:52:00,
2013-02-09 04:03:00,29.0,17.0,30.05,North,5,11.0,22.0,61,0.00,,,0.02,,2013-02-09 09:03:00,
2013-02-09 04:11:00,29.0,17.0,30.05,North,5,11.0,22.0,61,0.00,,,0.02,,2013-02-09 09:11:00,
2013-02-09 04:21:00,29.0,17.0,30.07,NNW,342,14.0,19.0,61,0.00,,,0.02,,2013-02-09 09:21:00,
2013-02-09 04:32:00,29.0,17.0,30.08,NNW,344,16.0,26.0,60,0.00,,,0.02,,2013-02-09 09:32:00,
2013-02-09 04:42:00,29.0,17.0,30.08,NNW,344,16.0,26.0,60,0.00,,,0.02,,2013-02-09 09:42:00,
2013-02-09 04:52:00,29.0,17.0,30.09,NNW,329,17.0,24.0,60,0.00,,,0.02,,2013-02-09 09:52:00,
2013-02-09 05:01:00,29.0,17.0,30.10,NNW,343,17.0,23.0,60,0.00,,,0.02,,2013-02-09 10:01:00,
2013-02-09 05:11:00,29.0,17.0,30.10,NNW,343,17.0,23.0,60,0.00,,,0.02,,2013-02-09 10:11:00,
2013-02-09 05:21:00,29.0,17.0,30.10,NW,315,17.0,22.0,61,0.00,,,0.02,,2013-02-09 10:21:00,
2013-02-09 05:32:00,29.0,16.0,30.09,NW,323,18.0,26.0,59,0.00,,,0.02,,2013-02-09 10:32:00,
2013-02-09 05:42:00,29.0,16.0,30.09,NW,323,18.0,26.0,59,0.00,,,0.02,,2013-02-09 10:42:00,
2013-02-09 05:52:00,28.0,16.0,30.10,NW,326,19.0,27.0,60,0.00,,,0.02,,2013-02-09 10:52:00,
2013-02-09 06:01:00,28.0,16.0,30.11,NNW,327,16.0,24.0,60,0.00,,,0.02,,2013-02-09 11:01:00,
2013-02-09 06:11:00,28.0,16.0,30.11,NNW,327,16.0,24.0,60,0.00,,,0.02,,2013-02-09 11:11:00,
2013-02-09 06:22:00,28.0,16.0,30.12,NNW,330,16.0,22.0,61,0.00,,,0.02,,2013-02-09 11:22:00,
2013-02-09 06:32:00,27.0,16.0,30.13,NW,326,11.0,21.0,62,0.00,,,0.02,,2013-02-09 11:32:00,
2013-02-09 06:42:00,27.0,16.0,30.13,NW,326,11.0,21.0,62,0.00,,,0.02,,2013-02-09 11:42:00,
2013-02-09 06:52:00,27.0,16.0,30.14,NNW,331,13.0,20.0,62,0.00,,,0.02,,2013-02-09 11:52:00,
2013-02-09 07:02:00,27.0,15.0,30.15,NNW,345,9.0,19.0,60,0.00,,,0.02,,2013-02-09 12:02:00,
2013-02-09 07:11:00,27.0,15.0,30.15,NNW,345,9.0,19.0,60,0.00,,,0.02,,2013-02-09 12:11:00,
2013-02-09 07:22:00,27.0,15.0,30.16,NNW,335,15.0,24.0,59,0.00,,,0.02,,2013-02-09 12:22:00,
2013-02-09 07:32:00,27.0,15.0,30.17,WNW,301,13.0,28.0,59,0.00,,,0.02,,2013-02-09 12:32:00,
2013-02-09 07:42:00,27.0,15.0,30.17,WNW,301,13.0,28.0,59,0.00,,,0.02,,2013-02-09 12:42:00,
2013-02-09 07:52:00,27.0,14.0,30.18,NNW,338,16.0,25.0,58,0.00,,,0.02,,2013-02-09 12:52:00,
2013-02-09 08:02:00,27.0,14.0,30.20,NNW,337,9.0,21.0,58,0.00,,,0.02,,2013-02-09 13:02:00,
2013-02-09 08:11:00,27.0,14.0,30.20,NNW,337,9.0,21.0,58,0.00,,,0.02,,2013-02-09 13:11:00,
2013-02-09 08:22:00,27.0,15.0,30.21,North,360,8.0,16.0,59,0.00,,,0.02,,2013-02-09 13:22:00,
2013-02-09 08:32:00,27.0,14.0,30.22,NNE,29,1.0,13.0,58,0.00,,,0.02,,2013-02-09 13:32:00,
2013-02-09 08:42:00,27.0,14.0,30.22,NNE,29,1.0,13.0,58,0.00,,,0.02,,2013-02-09 13:42:00,
2013-02-09 08:52:00,28.0,15.0,30.22,North,360,5.0,11.0,57,0.00,,,0.02,,2013-02-09 13:52:00,
2013-02-09 09:01:00,28.0,15.0,30.23,NW,320,12.0,20.0,57,0.00,,,0.02,,2013-02-09 14:01:00,
2013-02-09 09:11:00,28.0,15.0,30.23,NW,320,12.0,20.0,57,0.00,,,0.02,,2013-02-09 14:11:00,
2013-02-09 09:21:00,29.0,16.0,30.23,NNW,331,15.0,22.0,58,0.00,,,0.02,,2013-02-09 14:21:00,
2013-02-09 09:32:00,29.0,15.0,30.23,North,355,15.0,22.0,56,0.00,,,0.02,,2013-02-09 14:32:00,
2013-02-09 09:42:00,29.0,15.0,30.23,North,355,15.0,22.0,56,0.00,,,0.02,,2013-02-09 14:42:00,
2013-02-09 09:52:00,29.0,15.0,30.24,NNW,342,19.0,25.0,55,0.00,,,0.02,,2013-02-09 14:52:00,
2013-02-09 10:02:00,29.0,15.0,30.22,NNW,329,21.0,30.0,55,0.00,,,0.02,,2013-02-09 15:02:00,
2013-02-09 10:11:00,29.0,15.0,30.22,NNW,329,21.0,30.0,55,0.00,,,0.02,,2013-02-09 15:11:00,
2013-02-09 10:21:00,29.0,15.0,30.20,NW,317,22.0,31.0,55,0.00,,,0.02,,2013-02-09 15:21:00,
2013-02-09 10:32:00,30.0,16.0,30.20,NNW,342,23.0,31.0,55,0.00,,,0.02,,2013-02-09 15:32:00,
2013-02-09 10:42:00,30.0,16.0,30.20,NNW,342,23.0,31.0,55,0.00,,,0.02,,2013-02-09 15:42:00,
2013-02-09 10:52:00,30.0,15.0,30.21,NNW,330,17.0,28.0,54,0.00,,,0.02,,2013-02-09 15:52:00,
2013-02-09 11:01:00,30.0,15.0,30.23,NNW,347,15.0,21.0,52,0.00,,,0.02,,2013-02-09 16:01:00,
2013-02-09 11:11:00,30.0,15.0,30.23,NNW,347,15.0,21.0,52,0.00,,,0.02,,2013-02-09 16:11:00,
2013-02-09 11:22:00,31.0,15.0,30.24,NNW,340,12.0,22.0,52,0.00,,,0.02,,2013-02-09 16:22:00,
2013-02-09 11:32:00,32.0,15.0,30.24,North,350,12.0,21.0,50,0.00,,,0.02,,2013-02-09 16:32:00,
2013-02-09 11:42:00,32.0,15.0,30.24,North,350,12.0,21.0,50,0.00,,,0.02,,2013-02-09 16:42:00,
2013-02-09 11:52:00,33.0,16.0,30.24,NW,325,13.0,17.0,50,0.00,,,0.02,,2013-02-09 16:52:00,
2013-02-09 12:01:00,33.0,16.0,30.23,NW,325,10.0,17.0,49,0.00,,,0.02,,2013-02-09 17:01:00,
2013-02-09 12:11:00,33.0,16.0,30.23,NW,325,10.0,17.0,49,0.00,,,0.02,,2013-02-09 17:11:00,
2013-02-09 12:21:00,34.0,17.0,30.23,NNE,19,15.0,19.0,49,0.00,,,0.02,,2013-02-09 17:21:00,
2013-02-09 12:32:00,34.0,16.0,30.23,NNW,330,13.0,18.0,48,0.00,,,0.02,,2013-02-09 17:32:00,
2013-02-09 12:42:00,34.0,16.0,30.23,NNW,330,13.0,18.0,48,0.00,,,0.02,,2013-02-09 17:42:00,
2013-02-09 12:52:00,36.0,18.0,30.23,North,355,11.0,17.0,47,0.00,,,0.02,,2013-02-09 17:52:00,
2013-02-09 13:02:00,36.0,18.0,30.22,North,355,11.0,19.0,47,0.00,,,0.02,,2013-02-09 18:02:00,
2013-02-09 13:12:00,36.0,18.0,30.22,North,355,11.0,19.0,47,0.00,,,0.02,,2013-02-09 18:12:00,
2013-02-09 13:23:00,36.0,17.0,30.22,NNW,331,12.0,17.0,46,0.00,,,0.02,,2013-02-09 18:23:00,
2013-02-09 13:32:00,36.0,18.0,30.22,North,349,10.0,17.0,47,0.00,,,0.02,,2013-02-09 18:32:00,
2013-02-09 13:42:00,36.0,18.0,30.22,North,349,10.0,17.0,47,0.00,,,0.02,,2013-02-09 18:42:00,
2013-02-09 13:52:00,37.0,17.0,30.22,NNE,14,11.0,19.0,44,0.00,,,0.02,,2013-02-09 18:52:00,
2013-02-09 14:01:00,37.0,18.0,30.23,NW,324,12.0,21.0,45,0.00,,,0.02,,2013-02-09 19:01:00,
2013-02-09 14:11:00,37.0,18.0,30.23,NW,324,12.0,21.0,45,0.00,,,0.02,,2013-02-09 19:11:00,
2013-02-09 14:22:00,37.0,17.0,30.23,NNW,338,11.0,18.0,44,0.00,,,0.02,,2013-02-09 19:22:00,
2013-02-09 14:32:00,37.0,18.0,30.23,WNW,303,10.0,14.0,45,0.00,,,0.02,,2013-02-09 19:32:00,
2013-02-09 14:42:00,37.0,18.0,30.23,WNW,303,10.0,14.0,45,0.00,,,0.02,,2013-02-09 19:42:00,
2013-02-09 14:52:00,37.0,17.0,30.23,NW,307,8.0,13.0,44,0.00,,,0.02,,2013-02-09 19:52:00,
2013-02-09 15:01:00,37.0,17.0,30.23,NW,313,8.0,14.0,44,0.00,,,0.02,,2013-02-09 20:01:00,
2013-02-09 15:11:00,37.0,17.0,30.23,NW,313,8.0,14.0,44,0.00,,,0.02,,2013-02-09 20:11:00,
2013-02-09 15:21:00,38.0,18.0,30.23,North,360,9.0,16.0,43,0.00,,,0.01,,2013-02-09 20:21:00,
2013-02-09 15:32:00,38.0,16.0,30.24,NNW,339,11.0,18.0,41,0.00,,,0.01,,2013-02-09 20:32:00,
2013-02-09 15:42:00,38.0,16.0,30.24,NNW,339,11.0,18.0,41,0.00,,,0.01,,2013-02-09 20:42:00,
2013-02-09 15:52:00,38.0,17.0,30.24,NNW,348,9.0,16.0,42,0.00,,,0.01,,2013-02-09 20:52:00,
2013-02-09 16:02:00,38.0,15.0,30.24,North,11,12.0,16.0,39,0.00,,,0.01,,2013-02-09 21:02:00,
2013-02-09 16:12:00,38.0,15.0,30.24,North,11,12.0,16.0,39,0.00,,,0.01,,2013-02-09 21:12:00,
2013-02-09 16:21:00,38.0,15.0,30.24,NNE,12,10.0,17.0,39,0.00,,,0.00,,2013-02-09 21:21:00,
2013-02-09 16:32:00,37.0,14.0,30.25,North,350,12.0,16.0,39,0.00,,,0.00,,2013-02-09 21:32:00,
2013-02-09 16:42:00,37.0,14.0,30.25,North,350,12.0,16.0,39,0.00,,,0.00,,2013-02-09 21:42:00,
2013-02-09 16:52:00,37.0,14.0,30.25,North,360,8.0,16.0,39,0.00,,,0.00,,2013-02-09 21:52:00,
2013-02-09 17:01:00,37.0,14.0,30.26,North,360,8.0,15.0,38,0.00,,,0.00,,2013-02-09 22:01:00,
2013-02-09 17:11:00,37.0,14.0,30.26,North,360,8.0,15.0,38,0.00,,,0.00,,2013-02-09 22:11:00,
2013-02-09 17:22:00,37.0,14.0,30.27,NNW,346,7.0,10.0,39,0.00,,,0.00,,2013-02-09 22:22:00,
2013-02-09 17:32:00,36.0,14.0,30.28,North,11,3.0,9.0,40,0.00,,,0.00,,2013-02-09 22:32:00,
2013-02-09 17:42:00,36.0,14.0,30.28,North,11,3.0,9.0,40,0.00,,,0.00,,2013-02-09 22:42:00,
2013-02-09 17:52:00,35.0,14.0,30.29,NNW,339,4.0,6.0,42,0.00,,,0.00,,2013-02-09 22:52:00,
2013-02-09 18:02:00,33.0,13.0,30.29,NNW,331,5.0,6.0,44,0.00,,,0.00,,2013-02-09 23:02:00,
2013-02-09 18:11:00,33.0,13.0,30.29,NNW,331,5.0,6.0,44,0.00,,,0.00,,2013-02-09 23:11:00,
2013-02-09 18:21:00,32.0,15.0,30.29,NNW,338,5.0,7.0,48,0.00,,,0.00,,2013-02-09 23:21:00,
2013-02-09 18:32:00,32.0,15.0,30.30,NNW,348,1.0,5.0,49,0.00,,,0.00,,2013-02-09 23:32:00,
2013-02-09 18:42:00,32.0,15.0,30.30,NNW,348,1.0,5.0,49,0.00,,,0.00,,2013-02-09 23:42:00,
2013-02-09 18:52:00,31.0,14.0,30.31,NNW,348,0.0,1.0,48,0.00,,,0.00,,2013-02-09 23:52:00,
2013-02-09 19:02:00,31.0,13.0,30.31,NNW,348,0.0,2.0,47,0.00,,,0.00,,2013-02-10 00:02:00,
2013-02-09 19:12:00,31.0,13.0,30.31,NNW,348,0.0,2.0,47,0.00,,,0.00,,2013-02-10 00:12:00,
2013-02-09 19:22:00,32.0,14.0,30.32,North,355,2.0,5.0,46,0.00,,,0.00,,2013-02-10 00:22:00,
2013-02-09 19:32:00,32.0,13.0,30.32,North,355,0.0,2.0,45,0.00,,,0.00,,2013-02-10 00:32:00,
2013-02-09 19:42:00,32.0,13.0,30.32,North,355,0.0,2.0,45,0.00,,,0.00,,2013-02-10 00:42:00,
2013-02-09 19:52:00,31.0,14.0,30.32,East,92,0.0,3.0,48,0.00,,,0.00,,2013-02-10 00:52:00,
2013-02-09 20:01:00,30.0,13.0,30.32,East,92,0.0,2.0,49,0.00,,,0.00,,2013-02-10 01:01:00,
2013-02-09 20:12:00,30.0,13.0,30.32,East,92,0.0,2.0,49,0.00,,,0.00,,2013-02-10 01:12:00,
2013-02-09 20:22:00,31.0,14.0,30.32,East,82,2.0,5.0,49,0.00,,,0.00,,2013-02-10 01:22:00,
2013-02-09 20:32:00,31.0,14.0,30.32,NNE,24,0.0,3.0,49,0.00,,,0.00,,2013-02-10 01:32:00,
2013-02-09 20:42:00,31.0,14.0,30.32,NNE,24,0.0,3.0,49,0.00,,,0.00,,2013-02-10 01:42:00,
2013-02-09 20:52:00,30.0,14.0,30.32,NNE,24,0.0,2.0,50,0.00,,,0.00,,2013-02-10 01:52:00,
2013-02-09 21:01:00,29.0,14.0,30.33,NNE,24,0.0,1.0,52,0.00,,,0.00,,2013-02-10 02:01:00,
2013-02-09 21:11:00,29.0,14.0,30.33,NNE,24,0.0,1.0,52,0.00,,,0.00,,2013-02-10 02:11:00,
2013-02-09 21:22:00,30.0,14.0,30.33,NNE,24,0.0,2.0,50,0.00,,,0.00,,2013-02-10 02:22:00,
2013-02-09 21:32:00,29.0,14.0,30.33,NNE,24,0.0,2.0,53,0.00,,,0.00,,2013-02-10 02:32:00,
2013-02-09 21:42:00,29.0,14.0,30.33,NNE,24,0.0,2.0,53,0.00,,,0.00,,2013-02-10 02:42:00,
2013-02-09 21:52:00,29.0,14.0,30.33,NNE,24,0.0,1.0,52,0.00,,,0.00,,2013-02-10 02:52:00,
2013-02-09 22:02:00,28.0,14.0,30.35,NNE,24,1.0,3.0,54,0.00,,,0.00,,2013-02-10 03:02:00,
2013-02-09 22:11:00,28.0,14.0,30.35,NNE,24,1.0,3.0,54,0.00,,,0.00,,2013-02-10 03:11:00,
2013-02-09 22:22:00,28.0,14.0,30.35,NNE,24,0.0,2.0,55,0.00,,,0.00,,2013-02-10 03:22:00,
2013-02-09 22:32:00,27.0,14.0,30.35,NNE,24,0.0,2.0,57,0.00,,,0.00,,2013-02-10 03:32:00,
2013-02-09 22:42:00,27.0,14.0,30.35,NNE,24,0.0,2.0,57,0.00,,,0.00,,2013-02-10 03:42:00,
2013-02-09 22:52:00,26.0,13.0,30.35,NNE,24,0.0,2.0,58,0.00,,,0.00,,2013-02-10 03:52:00,
2013-02-09 23:01:00,26.0,14.0,30.35,NNE,24,0.0,2.0,59,0.00,,,0.00,,2013-02-10 04:01:00,
2013-02-09 23:11:00,26.0,14.0,30.35,NNE,24,0.0,2.0,59,0.00,,,0.00,,2013-02-10 04:11:00,
2013-02-09 23:22:00,26.0,14.0,30.35,SE,140,0.0,1.0,59,0.00,,,0.00,,2013-02-10 04:22:00,
2013-02-09 23:32:00,26.0,13.0,30.35,SE,140,0.0,3.0,58,0.00,,,0.00,,2013-02-10 04:32:00,
2013-02-09 23:42:00,26.0,13.0,30.35,SE,140,0.0,3.0,58,0.00,,,0.00,,2013-02-10 04:42:00,
2013-02-09 23:52:00,26.0,14.0,30.36,SE,140,0.0,1.0,59,0.00,,,0.00,,2013-02-10 04:52:00,